Simultaneous Nadir Overpasses (SNOs) Predictions

Prediction of SNOs between GOES-14 and AQUA Satellite Orbit:

Table of predicted SNOs for the next 14.0 days since TLE Epoch: 10/24/2020
Index Date Time (GOES-14) GOES-14 Lat,Lon AQUA Lat,Lon Distance(km) Time Diff (sec)
1 10/25/2020 08:26:51 0.15,-104.38 -0.11,-103.19 135.82 80
2 10/25/2020 20:48:15 -0.12,-104.26 -0.98,-108.38 468.46 80
3 10/27/2020 08:14:40 0.15,-104.38 -0.74,-100.24 471.21 80
4 10/27/2020 20:36:04 -0.12,-104.26 -0.35,-105.43 132.36 80
5 10/29/2020 20:26:32 -0.12,-104.26 0.23,-102.47 203.91 80
6 10/30/2020 08:47:49 0.10,-104.41 0.81,-107.64 367.84 80
7 11/01/2020 08:35:38 0.11,-104.40 0.16,-104.69 31.95 80
8 11/03/2020 08:20:46 0.12,-104.40 -0.43,-101.72 303.63 80
9 11/03/2020 20:42:10 -0.09,-104.24 -0.64,-106.92 304.20 80
10 11/05/2020 20:32:38 -0.09,-104.24 -0.04,-103.96 31.49 80
